Regional Weather Roundup
Issued by NWS

Home | Current Version | Previous Version | Graphics & Text | Print | Product List | Glossary On
Versions: 1 2 3 4 5 6 7 8 9 10 11 12 13 14 15 16 17 18 19 20 21 22 23 24 25 26 27 28 29 30 31 32 33 34 35 36 37 38 39 40 41 42 43 44 45 46 47 48 49 50
000
ASUS43 KDMX 251307
RWRIA

WEATHER ROUNDUP FOR IOWA
NATIONAL WEATHER SERVICE DES MOINES IA
700 AM CST THU DEC 25 2014

NOTE: "FAIR" INDICATES FEW OR NO CLOUDS BELOW 12,000 FEET WITH NO
SIGNIFICANT WEATHER AND/OR OBSTRUCTIONS TO VISIBILITY.

* - THESE STATIONS ARE NOT NWS STATIONS...THUS NOT UNDER NWS
QUALITY CONTROL.  THEY ALSO DO NOT REPORT WEATHER SUCH
AS PRECIPITATION OR FOG.

IAZ001>003-012>014-020>022-031>034-043>046-251400-
   NORTHWEST IOWA

CITY           SKY/WX    TMP DP  RH WIND       PRES   REMARKS
CARROLL *      CLEAR     32  28  86 S16G23    29.64R WCI  21
CHEROKEE *     CLOUDY    30  28  93 S6        29.60S WCI  24
DENISON *      CLEAR     32  28  86 S7G16     29.62R WCI  26
LE MARS *      CLEAR     30  28  93 S6        29.59S WCI  24
ORANGE CITY *  CLEAR     30  27  86 S6        29.58R WCI  24
SHELDON *      CLEAR     28  28 100 SE8       29.58R WCI  20
SIOUX CITY     CLOUDY    30  27  88 SE8       29.59R WCI  22
SPENCER        CLOUDY    29  25  85 SE9       29.61S WCI  20
STORM LAKE *   CLEAR     30  27  86 S10       29.62R WCI  21
$$

IAZ055>058-069>071-079>083-090>094-251400-
   SOUTHWEST IOWA

CITY           SKY/WX    TMP DP  RH WIND       PRES   REMARKS
ATLANTIC *     CLEAR     34  28  80 S12       29.67R WCI  25
AUDUBON *      CLEAR     32  25  74 S9        29.66S WCI  24
CLARINDA *     CLEAR     34  28  80 S9        29.71F WCI  26
COUNCIL BLFS * CLEAR     32  28  86 S12       29.62F WCI  23
CRESTON *      CLEAR     30  30 100 S15       29.71R WCI  19
HARLAN  *      CLEAR     32  32 100 S10       29.68R WCI  24
LAMONI         PTCLDY    29  27  92 S9        29.76R WCI  20
RED OAK *      MOCLDY    34  28  80 S14       29.68S WCI  24
SHENANDOAH *   CLEAR     34  28  80 S13       29.69S WCI  25
$$

IAZ047>049-059>061-072>074-084-251400-
   CENTRAL IOWA

CITY           SKY/WX    TMP DP  RH WIND       PRES   REMARKS
AMES           CLOUDY    31  27  85 S10       29.71R WCI  22
ANKENY *       CLEAR     32  28  86 S10       29.72S WCI  24
CHARITON *     MOCLDY    30  28  93 S13       29.75F WCI  20
DES MOINES     CLOUDY    32  27  81 S13       29.73S WCI  22
GRINNELL*      PTCLDY    30  28  93 S14       29.76R WCI  20
KNOXVILLE *    CLEAR     32  28  86 S12       29.74S WCI  23
MARSHALLTOWN   PTCLDY    31  28  89 S13       29.73R WCI  21
PELLA *        MOCLDY    32  28  86 S9        29.78R WCI  24
PERRY *          N/A     32  30  93 S13       29.69R WCI  22
$$

IAZ004>006-015-016-023>025-035-036-251400-
   NORTH CENTRAL IOWA

CITY           SKY/WX    TMP DP  RH WIND       PRES   REMARKS
ALGONA *       CLEAR     30  30 100 S13       29.66R WCI  20
CLARION *      CLEAR     30  30 100 S13       29.68R WCI  20
ESTHERVILLE    CLOUDY    28  27  96 S13       29.61F WCI  17
FORT DODGE *   CLOUDY    30  25  80 S8        29.67R WCI  23
MASON CITY     CLOUDY    29  27  92 S13       29.70R WCI  19
FOREST CITY *  PTCLDY    30  28  93 S9        29.68R WCI  22
IOWA FALLS *     N/A     30  28  93 S12       29.72R WCI  21
$$

IAZ007>011-017>019-026>030-037>042-050>054-066-251400-
   NORTHEAST IOWA

CITY           SKY/WX    TMP DP  RH WIND       PRES   REMARKS
CEDAR RAPIDS   MOCLDY    31  29  92 S9        29.79R WCI  23
CHARLES CITY * CLOUDY    30  30 100 S13       29.73R WCI  20
CLINTON *      CLOUDY    32  27  80 SW9       29.87R WCI  24
DECORAH *      CLOUDY    30  28  93 S8        29.73R WCI  23
DUBUQUE        CLOUDY    30  27  88 SW16      29.79R WCI  19
MONTICELLO *   CLOUDY    32  30  93 S10G16    29.80R WCI  24
OELWEIN *      CLOUDY    30  28  93 S16       29.77R WCI  19
WATERLOO       CLOUDY    30  28  92 S10       29.75R WCI  21
$$

IAZ064-065-067-068-078-251400-
   EAST CENTRAL IOWA

CITY           SKY/WX    TMP DP  RH WIND       PRES   REMARKS
DAVENPORT      CLOUDY    33  27  78 SW12G22   29.85R WCI  24
IOWA CITY      PTCLDY    31  28  89 S8        29.83R WCI  23
MT. PLEASANT * CLEAR     32  28  86 S13       29.85S WCI  22
MUSCATINE *    CLOUDY    34  28  80 S8        29.86R WCI  27
QUAD CITIES    CLOUDY    34  27  75 SW10      29.86R WCI  26
$$

IAZ062-063-075>077-085>089-095>099-251400-
   SOUTHEAST IOWA

CITY           SKY/WX    TMP DP  RH WIND       PRES   REMARKS
BURLINGTON     CLEAR     33  29  85 S13       29.86S WCI  24
FAIRFIELD *    CLEAR     32  28  86 S12       29.83R WCI  23
FORT MADISON * CLEAR     34  32  93 S10       29.87S WCI  26
KEOKUK *       CLEAR     34  30  86 S13       29.87R WCI  25
OSKALOOSA *      N/A     30  28  93 S12       29.80R WCI  21
CENTERVILLE *  CLEAR     30  30 100 S10       29.81S WCI  21
OTTUMWA        CLEAR     31  28  89 S15       29.78F WCI  20
WASHINGTON *   CLEAR     32  32 100 S14       29.82S WCI  22
$$

ABBREVIATIONS USED IN REMARKS
   TC - TEMPERATURES IN CELSIUS
  WCI - WIND CHILL INDEX
   HX - HEAT INDEX
  VSB - VISIBILITY
$$



USA.gov is the U.S. government's official web portal to all federal, state and local government web resources and services.